Regional Weather Roundup
Issued by NWS Pendleton, OR

Home | Current Version | Previous Version | Text Only | Print | Product List | Glossary On
Versions: 1 2 3 4 5 6 7 8 9 10 11 12 13 14 15 16 17 18 19 20 21 22 23 24 25 26 27 28 29 30 31 32 33 34 35 36 37 38 39 40 41 42 43 44 45 46 47 48 49 50
000
ASUS46 KPDT 280510
RWRPDT
PENDLETON REGIONAL WEATHER ROUNDUP
NATIONAL WEATHER SERVICE PENDLETON OREGON
1000 PM PDT THU AUG 27 2015

NOTE: FAIR INDICATES FEW OR NO CLOUDS BELOW 12,000 FEET WITH NO
SIGNIFICANT WEATHER AND/OR OBSTRUCTIONS TO VISIBILITY.

# INDICATES UNOFFICIAL STATION AND DATA

WAZ520-280610-
EAST SLOPES OF WASHINGTON CASCADES

CITY            SKY/WX      TMP DP  RH  WIND    PRES   REMARKS
#BULLFROG 2SW   N/A         67  44  43  CALM    27.63S
#BUMPING DAM    N/A         66  N/A N/A CALM    N/A
#CLE ELUM HS    N/A         71  43  36  CALM    29.95S
#CLE ELUM LAKE  N/A         68  45  44  CALM    29.88R
#CLIFFDEL 2NW   N/A         69  44  40  N1      N/A
#EASTON DOT     N/A         67  44  43  CALM    N/A
#GLENWOOD       N/A         70  49  47  S2      29.91R
#MANASTASH CYN  N/A         68  43  40  CALM    30.01F
#NELSON         N/A         70  48  46  CALM    29.91S
#NELSON 3SW     N/A         64  46  52  CALM    30.10R
#NILE           N/A         70  48  46  CALM    29.20R
#PEOH POINT     N/A         65  41  41  SW6     N/A
#RONALD 2NW     N/A         68  44  42  N1      29.93R
#SNOWDEN        N/A         66  24  20  CALM    N/A
#TEANAWAY 4NE   N/A         72  47  41  CALM    N/A
#TROUT LAKE 1NE N/A         68  46  45  CALM    29.91R
$$

WAZ521-280610-
SIMCOE HIGHLANDS

CITY            SKY/WX      TMP DP  RH  WIND    PRES   REMARKS
#BICKLETON HS   N/A         71  30  22  NW7     N/A
#SATUS PASS DOT N/A         65  39  38  CALM    N/A
#CENTERVILLE 4W N/A         72  42  34  CALM    29.75R
#GOLDENDALE     N/A         76  41  28  S2      N/A
#GOLDENDALE 1NE N/A         73  28  19  SW1     N/A
#GOLDENDALE 5WNWN/A         75  45  34  NW5     29.88R
#GOODNOE HILLS  N/A         79  42  27  NW10    N/A
#LYLE 6NE       N/A         77  45  32  W3      29.88S
$$

WAZ026-280610-
KITTITAS VALLEY

CITY            SKY/WX      TMP DP  RH  WIND    PRES   REMARKS
ELLENSBURG AP   MOCLDY      77  43  30  NW15    29.97S
YTC-OPS AREA    MOCLDY      71  40  32  W17     30.01F
#ELLENSBURG CWU N/A         76  45  33  N12     29.83S
#ELLENSBURG 3NE N/A         74  46  37  N1      29.97S
#ELLENSBURG 1E  N/A         76  42  30  CALM    N/A
#KITTITAS 4N    N/A         72  44  37  N1      29.98F
#THORP 6N       N/A         73  44  35  NW8     29.91R
$$

WAZ027-280610-
YAKIMA VALLEY

CITY            SKY/WX      TMP DP  RH  WIND    PRES   REMARKS
SUNNYSIDE AP    PTCLDY      66  54  65  CALM    29.92S
YAKIMA AIRPORT  MOCLDY      76  47  36  W7      29.93S
YAKIMA-VAGABOND PTCLDY      76  42  30  E5      29.95S
#DONALD 2NE     N/A         77  25  14  CALM    28.78S
#GRANDVIEW      N/A         70  53  55  CALM    29.89S
#MABTON         N/A         74  45  35  S1      29.91S
#MOXEE 2E       N/A         71  38  30  CALM    29.87R
#NACHES 2SW     N/A         72  49  44  CALM    29.98S
#TERRACE HTS    N/A         80  46  30  NW3     29.83S
#TOPPENISH      N/A         77  50  39  CALM    29.80R
#WAPATO 4NE     N/A         77  25  14  CALM    28.78S
#W YAKIMA       N/A         77  48  36  NW1     29.86S
#WHITE SWAN 5E  N/A         76  49  39  SW6     29.87S
#WILEY CITY 3W  N/A         75  38  26  CALM    29.92S
$$

WAZ028-280610-
LOWER COLUMBIA BASIN...WASHINGTON

CITY            SKY/WX      TMP DP  RH  WIND    PRES   REMARKS
PASCO           PTCLDY      73  53  49  E3      29.89R SMOKE
#BENTON CITY    N/A         84  45  26  W7      29.77S
#CONNELL 5N     N/A         77  46  33  W1      29.86S
#CONNELL 5NW    N/A         74  47  38  CALM    29.83S
#ELTOPIA 6NW    N/A         78  48  35  W6      28.89R
#KAHLOTUS       N/A         80  43  27  CALM    29.86S
#KENNEWICK      N/A         67  44  43  CALM    27.63S
#KENNEWICK 3S   N/A         79  44  29  CALM    29.87R
#PATERSON       N/A         81  47  30  N6      29.85S
#PROSSER DOT    N/A         76  50  40  CALM    N/A
#PROSSER        N/A         81  41  24  SW2     29.87S
#SAGEMOOR 2W    N/A         78  50  38  W2      29.72R
#TOUCHET 2S     N/A         69  49  49  CALM    29.85S
#WEST PASCO     N/A         78  48  35  CALM    29.85S
$$

WAZ029-280610-
FOOTHILLS OF THE BLUES...WASHINGTON

CITY            SKY/WX      TMP DP  RH  WIND    PRES   REMARKS
WALLA WALLA AP  PTCLDY      79  41  26  E7      29.93F
#DAYTON SCHOOL  N/A         74  39  28  N2      29.97S
#LOWDEN 2SE     N/A         71  55  57  CALM    29.87R
#PLEASANT VIEW 1N/A         78  40  26  SW3     29.90S
#PRESCOTT       N/A         68  47  47  CALM    29.86S
#SUDBURY        N/A         70  N/A N/A CALM    N/A
#WHITMAN COLLEGEN/A         80  45  29  CALM    29.91S
#WAITSBURG 8N   N/A         64  17  16  N2      29.76F
#WALLA WALLA U  N/A         79  47  32  CALM    29.86S
#WHITMAN MISSIONN/A         70  55  59  CALM    29.88S
$$

WAZ030-280610-
BLUE MOUNTAINS...WASHINGTON

CITY            SKY/WX      TMP DP  RH  WIND    PRES   REMARKS
$$

ORZ009-041-WAZ024-280610-
COLUMBIA RIVER GORGE

CITY            SKY/WX      TMP DP  RH  WIND    PRES   REMARKS
THE DALLES AP   MOCLDY      81  42  25  CALM    29.92R
#ARLINGTON AIRPON/A         80  45  29  W6      N/A
#MARYHILL       N/A         80  41  25  CALM    N/A
#MOSIER 1S      N/A         77  26  15  W2      29.96S

$$

ORZ510-280610-
NORTH CENTRAL OREGON

CITY            SKY/WX      TMP DP  RH  WIND    PRES   REMARKS
#CHENOWITH 1W   N/A         74  41  30  W20     N/A
#DUFUR 9E       N/A         74  43  33  NW5     29.95R
#GRASS VALLEY 1SN/A         70  43  38  NW7     29.95R
#MAUPIN SCHOOL  N/A         79  49  35  CALM    29.98R
#MORO SCHOOL    N/A         74  47  38  W5      30.00R
#SHANIKO 4NW    N/A         69  40  35  N9      30.09S
#TYGH VALLEY 2NEN/A         76  46  34  N1      29.89R
#WAPANITIA AIRPON/A         74  44  34  CALM    29.91R
#WASCO 5NE      N/A         71  43  36  CALM    29.90R
$$

ORZ511-280610-
CENTRAL OREGON

CITY            SKY/WX      TMP DP  RH  WIND    PRES   REMARKS
BEND AIRPORT    CLOUDY      72  41  33  NW8     30.08R
PRINEVILLE AP   MOCLDY      72  41  33  NW7     30.05S
REDMOND AIRPORT CLOUDY      74  42  32  NW10    30.05S SMOKE
#BEND 1SW       N/A         67  44  43  NE1     N/A
#BEND-AWBREY    N/A         70  45  41  N1      29.91R
#BEND-KIM LN    N/A         71  46  41  CALM    30.06R
#CULVER         N/A         71  46  41  CALM    30.00R
#LAKE BILLY CHINN/A         76  10   8  N2      30.08R
#MADRAS         N/A         72  46  39  NE3     N/A
#POWELL BUTTE 3EN/A         73  43  34  W6      N/A
#POWELL BUTTE   N/A         72  44  37  NW2     29.69F
#PRINEVILLE 3N  N/A         74  44  34  NW3     29.84R
#WARM SPRINGS   N/A         80  47  31  W5      29.96R

$$


ORZ509-280610-
EAST SLOPES OF OREGON CASCADES

CITY            SKY/WX      TMP DP  RH  WIND    PRES   REMARKS
#CAMP SHERMAN   N/A         71  40  32  CALM    29.91F
#LA PINE 4NW    N/A         66  43  43  CALM    29.98R
#SISTERS AIRPOR N/A         72  51  48  N5      30.17S
#SISTERS 3N     N/A         70  38  31  N3      30.08R
#SUNRIVER       N/A         67  47  49  CALM    29.81R
#TUMALO 3W      N/A         70  44  39  NE5     29.79R

$$

ORZ044-280610-
LOWER COLUMBIA BASIN...OREGON

CITY            SKY/WX      TMP DP  RH  WIND    PRES   REMARKS
HERMISTON       PTCLDY      72  53  51  E7      29.91R
#BOARDMAN SCHOOLN/A         76  54  46  SW1     29.89S
#BOARDMAN 8SW   N/A         77  50  39  W5      29.86S
#ECHO 8SW       N/A         71  45  39  SW2     29.92R
#IONE SCHOOL    N/A         81  43  26  CALM    29.91S
#IRRIGON 4NW    N/A         76  56  50  SE1     N/A
#UMATILLA SCHOOLN/A         75  60  60  S3      29.96S
#UMATILLA       N/A         78  47  34  CALM    29.81R
$$

ORZ507-280610-
NORTHERN FOOTHILLS OF THE BLUES

CITY            SKY/WX      TMP DP  RH  WIND    PRES   REMARKS
PENDLETON AIRPT PTCLDY      73  39  29  SE3     29.96S
#ADAMS 3WNW     N/A         66  39  37  CALM    29.88S
#ATHENA         N/A         68  43  40  CALM    29.91S
#CAYUSE         N/A         76  44  32  E6      29.86F
#HELIX SCHOOL   N/A         69  41  36  CALM    29.90R
#HELIX 3N       N/A         76  41  28  CALM    29.96S
#HOLDMAN 6E     N/A         75  41  29  CALM    29.70S
#M-F GROVE ELEM N/A         76  40  27  CALM    29.92S
#M-FREEWATER 5SEN/A         74  47  38  N2      29.95S
#PENDLETON DNTN N/A         75  39  27  CALM    29.96S
#PDT AQUATIC CTRN/A         75  37  25  CALM    29.94S
#PDT SUNRIDGE   N/A         74  43  33  CALM    29.96R
#PENDLETON 7NW  N/A         73  45  37  CALM    32.07S
#TUTUILLA       N/A         69  41  36  SW1     29.91S
#UMAPINE 2E     N/A         74  49  41  S2      29.88S
#WESTON SCHOOL  N/A         74  38  27  NW1     29.88S

$$

ORZ508-280610-
SOUTHERN FOOTHILLS OF THE BLUES

CITY            SKY/WX      TMP DP  RH  WIND    PRES   REMARKS
#AJAX           N/A         76  39  26  W7      29.95F
#CONDON SCHOOL  N/A         72  44  37  NW7     30.01R
#CONDON 5W      N/A         69  39  33  NW7     30.04R
#FOSSIL SCHOOL  N/A         66  51  58  CALM    29.94S
#HEPPNER EOC    N/A         74  41  30  E1      29.83S
#HEPPNER 4NE    N/A         70  40  34  CALM    29.89R
#LEXINGTON 2SE  N/A         68  47  47  CALM    29.94R
#OLEX 4N        N/A         75  42  31  SW6     29.93R
#RUGGS 5NE      N/A         72  35  26  W6      30.20S
#RUGGS 2SW      N/A         71  40  32  SW3     29.91R

$$

ORZ502-503-280610-
BLUE MOUNTAINS

CITY            SKY/WX      TMP DP  RH  WIND    PRES   REMARKS
MEACHAM         PTCLDY      59  40  49  CALM    30.12S
#HEPPNER 15SE   N/A         62  41  46  CALM    30.04S
#LONG CREEK HS  N/A         72  42  34  CALM    30.04R
#PIKES PEAK     N/A         77  37  24  CALM    27.99S
#TOLLGATE       N/A         62  37  39  CALM    30.03S
#TROY SCHOOL    N/A         68  52  57  CALM    29.77R
#UKIAH          N/A         65  42  43  CALM    29.98R
#WESTON 4E      N/A         73  41  31  CALM    29.84S
$$

ORZ505-280610-
JOHN DAY BASIN

CITY            SKY/WX      TMP DP  RH  WIND    PRES   REMARKS
JOHN DAY        PTCLDY      74  37  26  E7      30.07R
#JOHN DAY KJDY  N/A         70  -35  1  NE1     30.17R
#DAYVILLE SCHOOLN/A         81  36  20  N1      29.97R
#MITCHELL       N/A         70  45  41  CALM    30.22R
#MITCHELL 8NW   N/A         74  39  28  CALM    30.07R
#MONUMENT HS    N/A         81  37  21  N1      29.98R
#MT. VERNON 5SE N/A         71  34  26  CALM    30.04R
#SPRAY SCHOOL   N/A         76  N/A N/A CALM    N/A
$$

ORZ506-280610-
OCHOCO AND JOHN DAY HIGHLANDS

CITY            SKY/WX      TMP DP  RH  WIND    PRES   REMARKS
#PINE MTN OBS   N/A         62  41  46  NW7     N/A
#PRAIRIE CITY   N/A         64  44  48  CALM    29.96R
#SENECA         N/A         63  N/A N/A CALM    N/A
#SENECA 9NW     N/A         59  31  34  CALM    29.89R
$$

ORZ049-280610-
GRANDE RONDE VALLEY

CITY            SKY/WX      TMP DP  RH  WIND    PRES   REMARKS
LA GRANDE       PTCLDY      75  37  25  N7      30.04S
#COVE           N/A         70  47  44  N1      30.06R
#COVE SCHOOL    N/A         70  43  38  CALM    30.06R
#COVE 6NW       N/A         71  44  38  CALM    29.93R
#ELGIN 3N       N/A         68  36  31  CALM    30.02R
#ELGIN 1E       N/A         73  41  31  CALM    N/A
#ISLAND CITY 4N N/A         73  53  49  CALM    29.96S
#UNION 1S       N/A         71  44  38  N3      29.80R
$$

ORZ050-280610-
WALLOWA COUNTY

CITY            SKY/WX      TMP DP  RH  WIND    PRES   REMARKS
#ENTERPRISE HS  N/A         62  47  58  CALM    30.10R
#IMNAHA SCHOOL  N/A         77  42  29  CALM    29.98S
#IMNAHA 10S     N/A         67  41  39  S1      30.06S
#JOSEPH 3N      N/A         57  41  55  CALM    30.14R
#JOSEPH 3W      N/A         66  37  34  SW2     30.00R
#LOSTINE        N/A         63  44  50  CALM    29.75R
#MT HOWARD 8000 N/A         59  35  40  CALM    30.40F
#PROMISE 1S     N/A         65  41  41  CALM    30.03S
#WALLOWA SCHOOL N/A         64  47  54  CALM    30.03R



$$



USA.gov is the U.S. government's official web portal to all federal, state and local government web resources and services.